Change the Weather History Date:

Friday, January 3, 2014

  Actual Average (KSSC) Record (KSSC)
Temperature  
Mean Temperature 35 °F -  
Max Temperature 44 °F 56 °F 77 °F (2000)
Min Temperature 26 °F 34 °F 17 °F (2001)
Degree Days  
Heating Degree Days 30    
Moisture  
Dew Point 15 °F    
Average Humidity 48    
Maximum Humidity 76    
Minimum Humidity 30    
Precipitation  
Precipitation 0.00 in - - ()
Sea Level Pressure  
Sea Level Pressure 30.25 in    
Wind  
Wind Speed 13 mph (NNW)    
Max Wind Speed 24 mph    
Max Gust Speed 31 mph    
Visibility 10 miles    
Events      
Averages and records for this station are not official NWS values.
T = Trace of Precipitation, MM = Missing Value Source: NWS Daily Summary

Daily Weather History Graph

Daily Weather History Graph

Search for Another Location

Airport or City:

Trip Planner

Search our weather history database for the weather conditions in past years. The results will help you decide how hot, cold, wet, or windy it might be!

Date:

Astronomy

Jan. 03, 2014 Rise Set
Actual Time 7:28 AM EST 5:25 PM EST
Civil Twilight 7:01 AM EST 5:52 PM EST
Nautical Twilight 6:29 AM EST 6:23 PM EST
Astronomical Twilight 5:59 AM EST 6:54 PM EST
Moon 9:01 AM EST (1/3) 8:23 PM EST (1/3)
Length of Visible Light 10h 51m
Length of Day
9h 56m
Waxing Crescent, 8% of the Moon is Illuminated
Jan 3
Waxing Crescent
Jan 7
First Quarter
Jan 15
Full
Jan 24
Last Quarter
Jan 30
New

Hourly Weather History & Observations

Time (EST) Temp. Windchill Dew Point Humidity Pressure Visibility Wind Dir Wind Speed Gust Speed Precip Events Conditions
12:15 AM 44.6 °F 38.1 °F 37.4 °F 76% 29.79 in 10.0 mi West 13.8 mph - 0.00 in   Mostly Cloudy
12:35 AM 44.6 °F 37.2 °F 33.8 °F 66% 29.81 in 10.0 mi NW 17.3 mph 24.2 mph 0.00 in   Overcast
12:55 AM 42.8 °F 33.8 °F 30.2 °F 61% 29.83 in 10.0 mi NW 21.9 mph 29.9 mph 0.00 in   Overcast
1:15 AM 41.0 °F 32.2 °F 28.4 °F 61% 29.85 in 10.0 mi WNW 18.4 mph 29.9 mph 0.00 in   Overcast
1:35 AM 39.2 °F 29.8 °F 26.6 °F 61% 29.87 in 10.0 mi NW 18.4 mph 26.5 mph 0.00 in   Overcast
1:55 AM 37.4 °F 28.9 °F 24.8 °F 60% 29.89 in 10.0 mi WNW 13.8 mph 29.9 mph 0.00 in   Overcast
2:15 AM 35.6 °F 23.7 °F 23.0 °F 60% 29.93 in 10.0 mi NW 24.2 mph 28.8 mph 0.00 in   Mostly Cloudy
2:35 AM 35.6 °F 25.9 °F 21.2 °F 56% 29.95 in 10.0 mi NW 16.1 mph 31.1 mph 0.00 in   Mostly Cloudy
2:55 AM 33.8 °F 22.8 °F 21.2 °F 60% 29.97 in 10.0 mi WNW 18.4 mph 24.2 mph 0.00 in   Partly Cloudy
3:15 AM 32.0 °F 21.2 °F 19.4 °F 60% 30.00 in 10.0 mi WNW 16.1 mph 23.0 mph 0.00 in   Clear
3:35 AM 32.0 °F 21.6 °F 19.4 °F 60% 30.02 in 10.0 mi WNW 15.0 mph 20.7 mph 0.00 in   Clear
3:55 AM 32.0 °F 21.6 °F 19.4 °F 60% 30.03 in 10.0 mi NW 15.0 mph 24.2 mph 0.00 in   Clear
4:15 AM 32.0 °F 21.6 °F 19.4 °F 60% 30.04 in 10.0 mi WNW 15.0 mph 25.3 mph 0.00 in   Clear
4:35 AM 32.0 °F 20.5 °F 17.6 °F 55% 30.06 in 10.0 mi WNW 18.4 mph 25.3 mph 0.00 in   Clear
4:55 AM 32.0 °F 21.6 °F 17.6 °F 55% 30.07 in 10.0 mi NW 15.0 mph 24.2 mph 0.00 in   Clear
5:15 AM 30.2 °F 17.1 °F 14.0 °F 51% 30.08 in 10.0 mi NW 21.9 mph 28.8 mph 0.00 in   Clear
5:35 AM 30.2 °F 20.2 °F 14.0 °F 51% 30.11 in 10.0 mi NW 12.7 mph 26.5 mph 0.00 in   Clear
5:55 AM 30.2 °F 19.3 °F 14.0 °F 51% 30.13 in 10.0 mi NW 15.0 mph 19.6 mph 0.00 in   Clear
6:15 AM 30.2 °F 18.5 °F 14.0 °F 51% 30.14 in 10.0 mi NNW 17.3 mph 23.0 mph 0.00 in   Clear
6:35 AM 30.2 °F 18.9 °F 12.2 °F 47% 30.15 in 10.0 mi NW 16.1 mph 21.9 mph 0.00 in   Clear
6:55 AM 28.4 °F 18.5 °F 12.2 °F 51% 30.17 in 10.0 mi NW 11.5 mph - 0.00 in   Clear
7:15 AM 28.4 °F 18.0 °F 12.2 °F 51% 30.18 in 10.0 mi NNW 12.7 mph 18.4 mph 0.00 in   Clear
7:35 AM 28.4 °F 17.5 °F 12.2 °F 51% 30.20 in 10.0 mi NW 13.8 mph 18.4 mph 0.00 in   Clear
7:55 AM 28.4 °F 20.4 °F 12.2 °F 51% 30.23 in 10.0 mi NNW 8.1 mph 16.1 mph 0.00 in   Clear
8:15 AM 28.4 °F 19.1 °F 12.2 °F 51% 30.24 in 10.0 mi NW 10.4 mph - 0.00 in   Clear
8:35 AM 28.4 °F 17.0 °F 10.4 °F 47% 30.25 in 10.0 mi NNW 15.0 mph 20.7 mph 0.00 in   Clear
8:55 AM 30.2 °F 20.2 °F 10.4 °F 44% 30.27 in 10.0 mi NNW 12.7 mph 16.1 mph 0.00 in   Clear
9:15 AM 30.2 °F 21.3 °F 8.6 °F 40% 30.27 in 10.0 mi NNW 10.4 mph 17.3 mph 0.00 in   Clear
9:35 AM 30.2 °F 20.8 °F 8.6 °F 40% 30.30 in 10.0 mi North 11.5 mph 20.7 mph 0.00 in   Clear
9:55 AM 32.0 °F 23.6 °F 10.4 °F 41% 30.30 in 10.0 mi NNW 10.4 mph 18.4 mph 0.00 in   Clear
10:15 AM 32.0 °F 24.2 °F 8.6 °F 38% 30.31 in 10.0 mi North 9.2 mph 21.9 mph 0.00 in   Clear
10:35 AM 32.0 °F 23.0 °F 10.4 °F 41% 30.32 in 10.0 mi North 11.5 mph 18.4 mph 0.00 in   Clear
10:55 AM 32.0 °F 23.0 °F 10.4 °F 41% 30.33 in 10.0 mi NNW 11.5 mph 18.4 mph 0.00 in   Clear
11:15 AM 32.0 °F 22.5 °F 10.4 °F 41% 30.33 in 10.0 mi North 12.7 mph 19.6 mph 0.00 in   Clear
11:35 AM 33.8 °F 23.9 °F 8.6 °F 35% 30.33 in 10.0 mi NNW 15.0 mph - 0.00 in   Clear
11:55 AM 33.8 °F 23.9 °F 8.6 °F 35% 30.34 in 10.0 mi North 15.0 mph 20.7 mph 0.00 in   Clear
12:15 PM 33.8 °F 25.8 °F 10.4 °F 38% 30.35 in 10.0 mi NNW 10.4 mph 17.3 mph 0.00 in   Clear
12:35 PM 35.6 °F 27.1 °F 10.4 °F 35% 30.34 in 10.0 mi North 12.7 mph - 0.00 in   Clear
12:55 PM 35.6 °F 28.6 °F 10.4 °F 35% 30.34 in 10.0 mi North 9.2 mph - 0.00 in   Clear
1:15 PM 35.6 °F 26.6 °F 10.4 °F 35% 30.33 in 10.0 mi NNW 13.8 mph - 0.00 in   Clear
1:35 PM 35.6 °F 26.6 °F 8.6 °F 33% 30.32 in 10.0 mi North 13.8 mph 18.4 mph 0.00 in   Clear
1:55 PM 35.6 °F 26.2 °F 8.6 °F 33% 30.32 in 10.0 mi North 15.0 mph 19.6 mph 0.00 in   Clear
2:15 PM 37.4 °F 28.2 °F 8.6 °F 30% 30.32 in 10.0 mi North 16.1 mph - 0.00 in   Clear
2:35 PM 37.4 °F 29.8 °F 10.4 °F 33% 30.33 in 10.0 mi NNE 11.5 mph 18.4 mph 0.00 in   Clear
2:55 PM 37.4 °F 30.3 °F 10.4 °F 33% 30.33 in 10.0 mi North 10.4 mph 19.6 mph 0.00 in   Clear
3:15 PM 37.4 °F 28.5 °F 10.4 °F 33% 30.33 in 10.0 mi NNE 15.0 mph 18.4 mph 0.00 in   Clear
3:35 PM 37.4 °F 29.3 °F 8.6 °F 30% 30.33 in 10.0 mi North 12.7 mph - 0.00 in   Clear
3:55 PM 37.4 °F 30.8 °F 10.4 °F 33% 30.34 in 10.0 mi North 9.2 mph - 0.00 in   Clear
4:15 PM 37.4 °F 32.8 °F 10.4 °F 33% 30.35 in 10.0 mi NNW 5.8 mph - 0.00 in   Clear
4:35 PM 37.4 °F - 10.4 °F 33% 30.36 in 10.0 mi Calm Calm - 0.00 in   Clear
4:55 PM 37.4 °F 32.1 °F 10.4 °F 33% 30.36 in 10.0 mi North 6.9 mph - 0.00 in   Clear
5:15 PM 35.6 °F 30.7 °F 10.4 °F 35% 30.37 in 10.0 mi North 5.8 mph - 0.00 in   Clear
5:35 PM 35.6 °F - 10.4 °F 35% 30.38 in 10.0 mi Calm Calm - 0.00 in   Clear
5:55 PM 33.8 °F - 12.2 °F 41% 30.39 in 10.0 mi Calm Calm - 0.00 in   Clear
6:15 PM 32.0 °F - 14.0 °F 48% 30.40 in 10.0 mi Calm Calm - 0.00 in   Clear
6:35 PM 32.0 °F - 15.8 °F 51% 30.41 in 10.0 mi Calm Calm - 0.00 in   Clear
6:55 PM 32.0 °F - 15.8 °F 51% 30.42 in 10.0 mi Calm Calm - 0.00 in   Clear
7:15 PM 32.0 °F - 15.8 °F 51% 30.42 in 10.0 mi Calm Calm - 0.00 in   Clear
7:35 PM 32.0 °F - 14.0 °F 48% 30.43 in 10.0 mi Calm Calm - 0.00 in   Clear
7:55 PM 32.0 °F - 14.0 °F 48% 30.43 in 10.0 mi Calm Calm - 0.00 in   Clear
8:15 PM 30.2 °F - 17.6 °F 60% 30.43 in 10.0 mi Calm Calm - 0.00 in   Clear
8:35 PM 30.2 °F - 14.0 °F 51% 30.44 in 10.0 mi Calm Calm - 0.00 in   Clear
8:55 PM 30.2 °F - 14.0 °F 51% 30.44 in 10.0 mi Calm Calm - 0.00 in   Clear
9:15 PM 30.2 °F - 14.0 °F 51% 30.44 in 10.0 mi Calm Calm - 0.00 in   Clear
9:35 PM 30.2 °F - 14.0 °F 51% 30.44 in 10.0 mi Calm Calm - 0.00 in   Clear
9:55 PM 30.2 °F - 14.0 °F 51% 30.44 in 10.0 mi Calm Calm - 0.00 in   Clear
10:15 PM 30.2 °F - 14.0 °F 51% 30.45 in 10.0 mi Calm Calm - 0.00 in   Clear
10:35 PM 30.2 °F - 14.0 °F 51% 30.46 in 10.0 mi Calm Calm - 0.00 in   Clear
10:55 PM 28.4 °F - 19.4 °F 69% 30.46 in 10.0 mi Calm Calm - 0.00 in   Clear
11:15 PM 26.6 °F - 19.4 °F 74% 30.46 in 10.0 mi Calm Calm - 0.00 in   Clear
11:35 PM 26.6 °F - 19.4 °F 74% 30.46 in 10.0 mi Calm Calm - 0.00 in   Clear
11:55 PM 26.6 °F - 17.6 °F 69% 30.46 in 10.0 mi Calm Calm - 0.00 in   Clear